Location: Gu�tanj
(46.5431°N, 14.9692°E)
Time: 17:18:22
(UTC+00:00)

FALCON 9 DEB - Pass Details

Date: 03 March 2021
Orbit: 424 x 435 km, 53.0° (Epoch: 14 April)

Event Time Altitude Azimuth Distance (km) Brightness Sun altitude
Rises 18:21:01 0° 299° (WNW) 2,404 8.2 -16.6°
Reaches altitude 10° 18:23:08 10° 299° (WNW) 1,532 7.0 -16.9°
Maximum altitude 18:26:35 86° 211° (SSW) 434 3.0 -17.5°
Enters shadow 18:27:22 51° 126° (SE) 549 3.2 -17.7°
